owner,sensor,date,latitude,longitude,vertical_datum,wind_speed,wind_to_direction,wind_speed_of_gust,qcFlag 
WAVCIS,ioos:station:WAVCIS:CSI16:1,2012-05-01T00:00:00Z,29.4012,-89.0355,10.0,3.83,108.0,,'11111222,11111222,99999999' 
WAVCIS,ioos:station:WAVCIS:CSI16:1,2012-05-01T01:00:00Z,29.4012,-89.0355,10.0,3.671,119.0,,'11111222,11111222,99999999' 
WAVCIS,ioos:station:WAVCIS:CSI16:1,2012-05-01T02:00:00Z,29.4012,-89.0355,10.0,3.847,121.0,,'11111222,11111222,99999999' 
WAVCIS,ioos:station:WAVCIS:CSI16:1,2012-05-01T03:00:00Z,29.4012,-89.0355,10.0,4.059,120.0,,'11111222,11111222,99999999' 
WAVCIS,ioos:station:WAVCIS:CSI16:1,2012-05-01T04:00:00Z,29.4012,-89.0355,10.0,3.982,124.0,,'11111222,11111222,99999999' 
WAVCIS,ioos:station:WAVCIS:CSI16:1,2012-05-01T05:00:00Z,29.4012,-89.0355,10.0,3.517,109.0,,'11111222,11111222,99999999' 
WAVCIS,ioos:station:WAVCIS:CSI16:1,2012-05-01T06:00:00Z,29.4012,-89.0355,10.0,4.752,108.0,,'11111222,11111222,99999999' 
WAVCIS,ioos:station:WAVCIS:CSI16:1,2012-05-01T07:00:00Z,29.4012,-89.0355,10.0,4.561,116.0,,'11111222,11111222,99999999' 
WAVCIS,ioos:station:WAVCIS:CSI16:1,2012-05-01T08:00:00Z,29.4012,-89.0355,10.0,5.102,116.0,,'11111222,11111222,99999999' 
WAVCIS,ioos:station:WAVCIS:CSI16:1,2012-05-01T09:00:00Z,29.4012,-89.0355,10.0,4.18,114.0,,'11111222,11111222,99999999' 
WAVCIS,ioos:station:WAVCIS:CSI16:1,2012-05-01T10:00:00Z,29.4012,-89.0355,10.0,4.124,114.0,,'11111222,11111222,99999999' 
WAVCIS,ioos:station:WAVCIS:CSI16:1,2012-05-01T11:00:00Z,29.4012,-89.0355,10.0,5.305,102.0,,'11111222,11111222,99999999' 
WAVCIS,ioos:station:WAVCIS:CSI16:1,2012-05-01T12:00:00Z,29.4012,-89.0355,10.0,4.84,83.0,,'11111222,11111222,99999999' 
WAVCIS,ioos:station:WAVCIS:CSI16:1,2012-05-01T13:00:00Z,29.4012,-89.0355,10.0,4.126,73.0,,'11111222,11111222,99999999' 
WAVCIS,ioos:station:WAVCIS:CSI16:1,2012-05-01T14:00:00Z,29.4012,-89.0355,10.0,5.69,85.0,,'11111222,11111222,99999999' 
WAVCIS,ioos:station:WAVCIS:CSI16:1,2012-05-01T15:00:00Z,29.4012,-89.0355,10.0,6.282,90.0,,'11111222,11111222,99999999' 
WAVCIS,ioos:station:WAVCIS:CSI16:1,2012-05-01T16:00:00Z,29.4012,-89.0355,10.0,6.524,91.0,,'11111222,11111222,99999999' 
WAVCIS,ioos:station:WAVCIS:CSI16:1,2012-05-01T17:00:00Z,29.4012,-89.0355,10.0,6.06,104.0,,'11111222,11111222,99999999' 
WAVCIS,ioos:station:WAVCIS:CSI16:1,2012-05-01T18:00:00Z,29.4012,-89.0355,10.0,6.654,96.0,,'11111222,11111222,99999999' 
WAVCIS,ioos:station:WAVCIS:CSI16:1,2012-05-01T19:00:00Z,29.4012,-89.0355,10.0,4.804,78.0,,'11111222,11111222,99999999' 
WAVCIS,ioos:station:WAVCIS:CSI16:1,2012-05-01T20:00:00Z,29.4012,-89.0355,10.0,7.71,90.0,,'11111222,11111222,99999999' 
WAVCIS,ioos:station:WAVCIS:CSI16:1,2012-05-01T21:00:00Z,29.4012,-89.0355,10.0,5.635,76.0,,'11111222,11111222,99999999' 
WAVCIS,ioos:station:WAVCIS:CSI16:1,2012-05-01T22:00:00Z,29.4012,-89.0355,10.0,8.24,86.0,,'11111222,11111222,99999999' 
WAVCIS,ioos:station:WAVCIS:CSI16:1,2012-05-01T23:00:00Z,29.4012,-89.0355,10.0,7.17,81.0,,'11111222,11111222,99999999' 
WAVCIS,ioos:station:WAVCIS:CSI16:1,2012-05-02T00:00:00Z,29.4012,-89.0355,10.0,9.08,89.0,,'11111222,11111222,99999999' 
WAVCIS,ioos:station:WAVCIS:CSI16:1,2012-05-02T01:00:00Z,29.4012,-89.0355,10.0,9.31,98.0,,'11111222,11111222,99999999' 
WAVCIS,ioos:station:WAVCIS:CSI16:1,2012-05-02T02:00:00Z,29.4012,-89.0355,10.0,9.68,106.0,,'11111222,11111222,99999999' 
WAVCIS,ioos:station:WAVCIS:CSI16:1,2012-05-02T03:00:00Z,29.4012,-89.0355,10.0,9.93,104.0,,'11111222,11111222,99999999' 
WAVCIS,ioos:station:WAVCIS:CSI16:1,2012-05-02T04:00:00Z,29.4012,-89.0355,10.0,9.4,108.0,,'11111222,11111222,99999999' 
WAVCIS,ioos:station:WAVCIS:CSI16:1,2012-05-02T05:00:00Z,29.4012,-89.0355,10.0,9.98,114.0,,'11111222,11111222,99999999' 
WAVCIS,ioos:station:WAVCIS:CSI16:1,2012-05-02T06:00:00Z,29.4012,-89.0355,10.0,9.4,118.0,,'11111222,11111222,99999999' 
WAVCIS,ioos:station:WAVCIS:CSI16:1,2012-05-02T07:00:00Z,29.4012,-89.0355,10.0,9.62,116.0,,'11111222,11111222,99999999' 
WAVCIS,ioos:station:WAVCIS:CSI16:1,2012-05-02T08:00:00Z,29.4012,-89.0355,10.0,9.53,128.0,,'11111222,11111222,99999999' 
WAVCIS,ioos:station:WAVCIS:CSI16:1,2012-05-02T09:00:00Z,29.4012,-89.0355,10.0,10.13,133.0,,'11111222,11111222,99999999' 
WAVCIS,ioos:station:WAVCIS:CSI16:1,2012-05-02T10:00:00Z,29.4012,-89.0355,10.0,9.71,134.0,,'11111222,11111222,99999999' 
WAVCIS,ioos:station:WAVCIS:CSI16:1,2012-05-02T11:00:00Z,29.4012,-89.0355,10.0,8.93,129.0,,'11111222,11111222,99999999' 
WAVCIS,ioos:station:WAVCIS:CSI16:1,2012-05-02T12:00:00Z,29.4012,-89.0355,10.0,8.71,134.0,,'11111222,11111222,99999999' 
WAVCIS,ioos:station:WAVCIS:CSI16:1,2012-05-02T13:00:00Z,29.4012,-89.0355,10.0,7.34,142.0,,'11111222,11111222,99999999' 
WAVCIS,ioos:station:WAVCIS:CSI16:1,2012-05-02T14:00:00Z,29.4012,-89.0355,10.0,9.68,153.0,,'11111222,11111222,99999999' 
WAVCIS,ioos:station:WAVCIS:CSI16:1,2012-05-02T15:00:00Z,29.4012,-89.0355,10.0,8.99,134.0,,'11111222,11111222,99999999' 
WAVCIS,ioos:station:WAVCIS:CSI16:1,2012-05-02T16:00:00Z,29.4012,-89.0355,10.0,8.21,131.0,,'11111222,11111222,99999999' 
WAVCIS,ioos:station:WAVCIS:CSI16:1,2012-05-02T17:00:00Z,29.4012,-89.0355,10.0,9.02,138.0,,'11111222,11111222,99999999' 
WAVCIS,ioos:station:WAVCIS:CSI16:1,2012-05-02T18:00:00Z,29.4012,-89.0355,10.0,8.92,129.0,,'11111222,11111222,99999999' 
WAVCIS,ioos:station:WAVCIS:CSI16:1,2012-05-02T19:00:00Z,29.4012,-89.0355,10.0,9.95,141.0,,'11111222,11111222,99999999' 
WAVCIS,ioos:station:WAVCIS:CSI16:1,2012-05-02T20:00:00Z,29.4012,-89.0355,10.0,8.53,149.0,,'11111222,11111222,99999999' 
WAVCIS,ioos:station:WAVCIS:CSI16:1,2012-05-02T21:00:00Z,29.4012,-89.0355,10.0,7.34,179.0,,'11111222,11111222,99999999' 
WAVCIS,ioos:station:WAVCIS:CSI16:1,2012-05-02T22:00:00Z,29.4012,-89.0355,10.0,4.013,183.0,,'11111222,11111222,99999999' 
WAVCIS,ioos:station:WAVCIS:CSI16:1,2012-05-02T23:00:00Z,29.4012,-89.0355,10.0,5.997,212.0,,'11111222,11111222,99999999' 
WAVCIS,ioos:station:WAVCIS:CSI16:1,2012-05-03T00:00:00Z,29.4012,-89.0355,10.0,4.046,129.0,,'11111222,11111222,99999999' 
WAVCIS,ioos:station:WAVCIS:CSI16:1,2012-05-03T01:00:00Z,29.4012,-89.0355,10.0,4.827,108.0,,'11111222,11111222,99999999' 
WAVCIS,ioos:station:WAVCIS:CSI16:1,2012-05-03T02:00:00Z,29.4012,-89.0355,10.0,2.649,140.0,,'11111222,11111222,99999999' 
WAVCIS,ioos:station:WAVCIS:CSI16:1,2012-05-03T03:00:00Z,29.4012,-89.0355,10.0,7.09,124.0,,'11111222,11111222,99999999' 
WAVCIS,ioos:station:WAVCIS:CSI16:1,2012-05-03T04:00:00Z,29.4012,-89.0355,10.0,5.565,92.0,,'11111222,11111222,99999999' 
WAVCIS,ioos:station:WAVCIS:CSI16:1,2012-05-03T05:00:00Z,29.4012,-89.0355,10.0,8.12,123.0,,'11111222,11111222,99999999' 
WAVCIS,ioos:station:WAVCIS:CSI16:1,2012-05-03T06:00:00Z,29.4012,-89.0355,10.0,5.833,121.0,,'11111222,11111222,99999999' 
WAVCIS,ioos:station:WAVCIS:CSI16:1,2012-05-03T07:00:00Z,29.4012,-89.0355,10.0,8.02,129.0,,'11111222,11111222,99999999' 
WAVCIS,ioos:station:WAVCIS:CSI16:1,2012-05-03T08:00:00Z,29.4012,-89.0355,10.0,7.85,152.0,,'11111222,11111222,99999999' 
WAVCIS,ioos:station:WAVCIS:CSI16:1,2012-05-03T09:00:00Z,29.4012,-89.0355,10.0,6.776,119.0,,'11111222,11111222,99999999' 
WAVCIS,ioos:station:WAVCIS:CSI16:1,2012-05-03T10:00:00Z,29.4012,-89.0355,10.0,4.566,130.0,,'11111222,11111222,99999999' 
WAVCIS,ioos:station:WAVCIS:CSI16:1,2012-05-03T11:00:00Z,29.4012,-89.0355,10.0,5.532,146.0,,'11111222,11111222,99999999' 
WAVCIS,ioos:station:WAVCIS:CSI16:1,2012-05-03T12:00:00Z,29.4012,-89.0355,10.0,5.323,122.0,,'11111222,11111222,99999999' 
WAVCIS,ioos:station:WAVCIS:CSI16:1,2012-05-03T13:00:00Z,29.4012,-89.0355,10.0,2.34,113.0,,'11111222,11111222,99999999' 
WAVCIS,ioos:station:WAVCIS:CSI16:1,2012-05-03T14:00:00Z,29.4012,-89.0355,10.0,2.522,120.0,,'11111222,11111222,99999999' 
WAVCIS,ioos:station:WAVCIS:CSI16:1,2012-05-03T15:00:00Z,29.4012,-89.0355,10.0,4.45,105.0,,'11111222,11111222,99999999' 
WAVCIS,ioos:station:WAVCIS:CSI16:1,2012-05-03T16:00:00Z,29.4012,-89.0355,10.0,3.723,123.0,,'11111222,11111222,99999999' 
WAVCIS,ioos:station:WAVCIS:CSI16:1,2012-05-03T17:00:00Z,29.4012,-89.0355,10.0,2.74,143.0,,'11111222,11111222,99999999' 
WAVCIS,ioos:station:WAVCIS:CSI16:1,2012-05-03T18:00:00Z,29.4012,-89.0355,10.0,2.767,218.0,,'11111222,11111222,99999999' 
WAVCIS,ioos:station:WAVCIS:CSI16:1,2012-05-03T19:00:00Z,29.4012,-89.0355,10.0,2.298,129.0,,'11111222,11111222,99999999' 
WAVCIS,ioos:station:WAVCIS:CSI16:1,2012-05-03T20:00:00Z,29.4012,-89.0355,10.0,2.482,122.0,,'11111222,11111222,99999999' 
WAVCIS,ioos:station:WAVCIS:CSI16:1,2012-05-03T21:00:00Z,29.4012,-89.0355,10.0,2.718,108.0,,'11111222,11111222,99999999' 
WAVCIS,ioos:station:WAVCIS:CSI16:1,2012-05-03T22:00:00Z,29.4012,-89.0355,10.0,2.854,93.0,,'11111222,11111222,99999999' 
WAVCIS,ioos:station:WAVCIS:CSI16:1,2012-05-03T23:00:00Z,29.4012,-89.0355,10.0,2.959,87.0,,'11111222,11111222,99999999' 
WAVCIS,ioos:station:WAVCIS:CSI16:1,2012-05-04T00:00:00Z,29.4012,-89.0355,10.0,4.252,97.0,,'11111222,11111222,99999999' 
WAVCIS,ioos:station:WAVCIS:CSI16:1,2012-05-04T01:00:00Z,29.4012,-89.0355,10.0,4.089,115.0,,'11111222,11111222,99999999' 
WAVCIS,ioos:station:WAVCIS:CSI16:1,2012-05-04T02:00:00Z,29.4012,-89.0355,10.0,3.646,106.0,,'11111222,11111222,99999999' 
WAVCIS,ioos:station:WAVCIS:CSI16:1,2012-05-04T03:00:00Z,29.4012,-89.0355,10.0,4.036,114.0,,'11111222,11111222,99999999' 
WAVCIS,ioos:station:WAVCIS:CSI16:1,2012-05-04T04:00:00Z,29.4012,-89.0355,10.0,4.078,116.0,,'11111222,11111222,99999999' 
WAVCIS,ioos:station:WAVCIS:CSI16:1,2012-05-04T05:00:00Z,29.4012,-89.0355,10.0,3.708,121.0,,'11111222,11111222,99999999' 
WAVCIS,ioos:station:WAVCIS:CSI16:1,2012-05-04T06:00:00Z,29.4012,-89.0355,10.0,3.625,132.0,,'11111222,11111222,99999999' 
WAVCIS,ioos:station:WAVCIS:CSI16:1,2012-05-04T07:00:00Z,29.4012,-89.0355,10.0,3.718,138.0,,'11111222,11111222,99999999' 
WAVCIS,ioos:station:WAVCIS:CSI16:1,2012-05-04T08:00:00Z,29.4012,-89.0355,10.0,3.903,186.0,,'11111222,11111222,99999999' 
WAVCIS,ioos:station:WAVCIS:CSI16:1,2012-05-04T09:00:00Z,29.4012,-89.0355,10.0,3.817,233.0,,'11111222,11111222,99999999' 
WAVCIS,ioos:station:WAVCIS:CSI16:1,2012-05-04T10:00:00Z,29.4012,-89.0355,10.0,1.883,227.0,,'11111222,11111222,99999999' 
WAVCIS,ioos:station:WAVCIS:CSI16:1,2012-05-04T11:00:00Z,29.4012,-89.0355,10.0,2.192,234.0,,'11111222,11111222,99999999' 
WAVCIS,ioos:station:WAVCIS:CSI16:1,2012-05-04T12:00:00Z,29.4012,-89.0355,10.0,1.489,237.0,,'11111222,11111222,99999999' 
WAVCIS,ioos:station:WAVCIS:CSI16:1,2012-05-04T13:00:00Z,29.4012,-89.0355,10.0,2.07,267.0,,'11111222,11111222,99999999' 
WAVCIS,ioos:station:WAVCIS:CSI16:1,2012-05-04T14:00:00Z,29.4012,-89.0355,10.0,2.696,272.0,,'11111222,11111222,99999999' 
WAVCIS,ioos:station:WAVCIS:CSI16:1,2012-05-04T15:00:00Z,29.4012,-89.0355,10.0,2.373,284.0,,'11111222,11111222,99999999' 
WAVCIS,ioos:station:WAVCIS:CSI16:1,2012-05-04T16:00:00Z,29.4012,-89.0355,10.0,1.859,317.0,,'11111222,11111222,99999999' 
WAVCIS,ioos:station:WAVCIS:CSI16:1,2012-05-04T17:00:00Z,29.4012,-89.0355,10.0,2.769,322.0,,'11111222,11111222,99999999' 
WAVCIS,ioos:station:WAVCIS:CSI16:1,2012-05-04T18:00:00Z,29.4012,-89.0355,10.0,2.86,10.0,,'11111222,11111222,99999999' 
WAVCIS,ioos:station:WAVCIS:CSI16:1,2012-05-04T19:00:00Z,29.4012,-89.0355,10.0,2.027,41.0,,'11111222,11111222,99999999' 
WAVCIS,ioos:station:WAVCIS:CSI16:1,2012-05-04T20:00:00Z,29.4012,-89.0355,10.0,1.781,78.0,,'11111222,11111222,99999999' 
WAVCIS,ioos:station:WAVCIS:CSI16:1,2012-05-04T21:00:00Z,29.4012,-89.0355,10.0,2.272,92.0,,'11111222,11111222,99999999' 
WAVCIS,ioos:station:WAVCIS:CSI16:1,2012-05-04T22:00:00Z,29.4012,-89.0355,10.0,2.73,105.0,,'11111222,11111222,99999999' 
WAVCIS,ioos:station:WAVCIS:CSI16:1,2012-05-04T23:00:00Z,29.4012,-89.0355,10.0,2.743,105.0,,'11111222,11111222,99999999' 
WAVCIS,ioos:station:WAVCIS:CSI16:1,2012-05-05T00:00:00Z,29.4012,-89.0355,10.0,3.491,129.0,,'11111222,11111222,99999999' 
WAVCIS,ioos:station:WAVCIS:CSI16:1,2012-05-05T01:00:00Z,29.4012,-89.0355,10.0,4.21,140.0,,'11111222,11111222,99999999' 
WAVCIS,ioos:station:WAVCIS:CSI16:1,2012-05-05T02:00:00Z,29.4012,-89.0355,10.0,3.548,146.0,,'11111222,11111222,99999999' 
WAVCIS,ioos:station:WAVCIS:CSI16:1,2012-05-05T03:00:00Z,29.4012,-89.0355,10.0,3.487,142.0,,'11111222,11111222,99999999' 
WAVCIS,ioos:station:WAVCIS:CSI16:1,2012-05-05T04:00:00Z,29.4012,-89.0355,10.0,3.885,135.0,,'11111222,11111222,99999999' 
WAVCIS,ioos:station:WAVCIS:CSI16:1,2012-05-05T05:00:00Z,29.4012,-89.0355,10.0,5.12,136.0,,'11111222,11111222,99999999' 
WAVCIS,ioos:station:WAVCIS:CSI16:1,2012-05-05T06:00:00Z,29.4012,-89.0355,10.0,3.282,162.0,,'11111222,11111222,99999999' 
WAVCIS,ioos:station:WAVCIS:CSI16:1,2012-05-05T07:00:00Z,29.4012,-89.0355,10.0,3.15,160.0,,'11111222,11111222,99999999' 
WAVCIS,ioos:station:WAVCIS:CSI16:1,2012-05-05T08:00:00Z,29.4012,-89.0355,10.0,2.526,196.0,,'11111222,11111222,99999999' 
WAVCIS,ioos:station:WAVCIS:CSI16:1,2012-05-05T09:00:00Z,29.4012,-89.0355,10.0,3.559,216.0,,'11111222,11111222,99999999' 
WAVCIS,ioos:station:WAVCIS:CSI16:1,2012-05-05T10:00:00Z,29.4012,-89.0355,10.0,2.791,193.0,,'11111222,11111222,99999999' 
WAVCIS,ioos:station:WAVCIS:CSI16:1,2012-05-05T11:00:00Z,29.4012,-89.0355,10.0,2.407,206.0,,'11111222,11111222,99999999' 
WAVCIS,ioos:station:WAVCIS:CSI16:1,2012-05-05T12:00:00Z,29.4012,-89.0355,10.0,2.318,251.0,,'11111222,11111222,99999999' 
WAVCIS,ioos:station:WAVCIS:CSI16:1,2012-05-05T13:00:00Z,29.4012,-89.0355,10.0,1.561,250.0,,'11111222,11111222,99999999' 
WAVCIS,ioos:station:WAVCIS:CSI16:1,2012-05-05T14:00:00Z,29.4012,-89.0355,10.0,1.467,185.0,,'11111222,11111222,99999999' 
WAVCIS,ioos:station:WAVCIS:CSI16:1,2012-05-05T15:00:00Z,29.4012,-89.0355,10.0,1.196,180.0,,'11111222,11111222,99999999' 
WAVCIS,ioos:station:WAVCIS:CSI16:1,2012-05-05T16:00:00Z,29.4012,-89.0355,10.0,2.296,85.0,,'11111222,11111222,99999999' 
WAVCIS,ioos:station:WAVCIS:CSI16:1,2012-05-05T17:00:00Z,29.4012,-89.0355,10.0,2.196,100.0,,'11111222,11111222,99999999' 
WAVCIS,ioos:station:WAVCIS:CSI16:1,2012-05-05T18:00:00Z,29.4012,-89.0355,10.0,2.145,103.0,,'11111222,11111222,99999999' 
WAVCIS,ioos:station:WAVCIS:CSI16:1,2012-05-05T19:00:00Z,29.4012,-89.0355,10.0,3.101,88.0,,'11111222,11111222,99999999' 
WAVCIS,ioos:station:WAVCIS:CSI16:1,2012-05-05T20:00:00Z,29.4012,-89.0355,10.0,3.379,124.0,,'11111222,11111222,99999999' 
WAVCIS,ioos:station:WAVCIS:CSI16:1,2012-05-05T21:00:00Z,29.4012,-89.0355,10.0,4.73,125.0,,'11111222,11111222,99999999' 
WAVCIS,ioos:station:WAVCIS:CSI16:1,2012-05-05T22:00:00Z,29.4012,-89.0355,10.0,5.121,135.0,,'11111222,11111222,99999999' 
WAVCIS,ioos:station:WAVCIS:CSI16:1,2012-05-05T23:00:00Z,29.4012,-89.0355,10.0,4.218,132.0,,'11111222,11111222,99999999' 
WAVCIS,ioos:station:WAVCIS:CSI16:1,2012-05-06T00:00:00Z,29.4012,-89.0355,10.0,3.841,141.0,,'11111222,11111222,99999999' 
WAVCIS,ioos:station:WAVCIS:CSI16:1,2012-05-06T01:00:00Z,29.4012,-89.0355,10.0,2.838,129.0,,'11111222,11111222,99999999' 
WAVCIS,ioos:station:WAVCIS:CSI16:1,2012-05-06T02:00:00Z,29.4012,-89.0355,10.0,2.708,163.0,,'11111222,11111222,99999999' 
WAVCIS,ioos:station:WAVCIS:CSI16:1,2012-05-06T03:00:00Z,29.4012,-89.0355,10.0,3.461,155.0,,'11111222,11111222,99999999' 
WAVCIS,ioos:station:WAVCIS:CSI16:1,2012-05-06T04:00:00Z,29.4012,-89.0355,10.0,2.949,176.0,,'11111222,11111222,99999999' 
WAVCIS,ioos:station:WAVCIS:CSI16:1,2012-05-06T05:00:00Z,29.4012,-89.0355,10.0,3.172,159.0,,'11111222,11111222,99999999' 
WAVCIS,ioos:station:WAVCIS:CSI16:1,2012-05-06T06:00:00Z,29.4012,-89.0355,10.0,3.394,149.0,,'11111222,11111222,99999999' 
WAVCIS,ioos:station:WAVCIS:CSI16:1,2012-05-06T07:00:00Z,29.4012,-89.0355,10.0,2.204,220.0,,'11111222,11111222,99999999' 
WAVCIS,ioos:station:WAVCIS:CSI16:1,2012-05-06T08:00:00Z,29.4012,-89.0355,10.0,1.582,254.0,,'11111222,11111222,99999999' 
WAVCIS,ioos:station:WAVCIS:CSI16:1,2012-05-06T09:00:00Z,29.4012,-89.0355,10.0,1.813,267.0,,'11111222,11111222,99999999' 
WAVCIS,ioos:station:WAVCIS:CSI16:1,2012-05-06T10:00:00Z,29.4012,-89.0355,10.0,2.034,269.0,,'11111222,11111222,99999999' 
WAVCIS,ioos:station:WAVCIS:CSI16:1,2012-05-06T11:00:00Z,29.4012,-89.0355,10.0,1.412,286.0,,'11111222,11111222,99999999' 
WAVCIS,ioos:station:WAVCIS:CSI16:1,2012-05-06T12:00:00Z,29.4012,-89.0355,10.0,1.377,243.0,,'11111222,11111222,99999999' 
WAVCIS,ioos:station:WAVCIS:CSI16:1,2012-05-06T13:00:00Z,29.4012,-89.0355,10.0,0.997,108.0,,'11111222,11111222,99999999' 
WAVCIS,ioos:station:WAVCIS:CSI16:1,2012-05-06T14:00:00Z,29.4012,-89.0355,10.0,1.453,31.0,,'11111222,11111222,99999999' 
WAVCIS,ioos:station:WAVCIS:CSI16:1,2012-05-06T15:00:00Z,29.4012,-89.0355,10.0,2.349,72.0,,'11111222,11111222,99999999' 
WAVCIS,ioos:station:WAVCIS:CSI16:1,2012-05-06T16:00:00Z,29.4012,-89.0355,10.0,1.851,92.0,,'11111222,11111222,99999999' 
WAVCIS,ioos:station:WAVCIS:CSI16:1,2012-05-06T17:00:00Z,29.4012,-89.0355,10.0,2.277,81.0,,'11111222,11111222,99999999' 
WAVCIS,ioos:station:WAVCIS:CSI16:1,2012-05-06T18:00:00Z,29.4012,-89.0355,10.0,2.285,108.0,,'11111222,11111222,99999999' 
WAVCIS,ioos:station:WAVCIS:CSI16:1,2012-05-06T19:00:00Z,29.4012,-89.0355,10.0,2.39,88.0,,'11111222,11111222,99999999' 
WAVCIS,ioos:station:WAVCIS:CSI16:1,2012-05-06T20:00:00Z,29.4012,-89.0355,10.0,3.275,117.0,,'11111222,11111222,99999999' 
WAVCIS,ioos:station:WAVCIS:CSI16:1,2012-05-06T21:00:00Z,29.4012,-89.0355,10.0,3.269,87.0,,'11111222,11111222,99999999' 
WAVCIS,ioos:station:WAVCIS:CSI16:1,2012-05-06T22:00:00Z,29.4012,-89.0355,10.0,3.938,123.0,,'11111222,11111222,99999999' 
WAVCIS,ioos:station:WAVCIS:CSI16:1,2012-05-06T23:00:00Z,29.4012,-89.0355,10.0,4.22,125.0,,'11111222,11111222,99999999' 
WAVCIS,ioos:station:WAVCIS:CSI16:1,2012-05-07T00:00:00Z,29.4012,-89.0355,10.0,3.54,118.0,,'11111222,11111222,99999999' 
WAVCIS,ioos:station:WAVCIS:CSI16:1,2012-05-07T01:00:00Z,29.4012,-89.0355,10.0,4.364,116.0,,'11111222,11111222,99999999' 
WAVCIS,ioos:station:WAVCIS:CSI16:1,2012-05-07T02:00:00Z,29.4012,-89.0355,10.0,3.833,91.0,,'11111222,11111222,99999999' 
WAVCIS,ioos:station:WAVCIS:CSI16:1,2012-05-07T03:00:00Z,29.4012,-89.0355,10.0,5.401,103.0,,'11111222,11111222,99999999' 
WAVCIS,ioos:station:WAVCIS:CSI16:1,2012-05-07T04:00:00Z,29.4012,-89.0355,10.0,4.456,153.0,,'11111222,11111222,99999999' 
WAVCIS,ioos:station:WAVCIS:CSI16:1,2012-05-07T05:00:00Z,29.4012,-89.0355,10.0,5.106,189.0,,'11111222,11111222,99999999' 
WAVCIS,ioos:station:WAVCIS:CSI16:1,2012-05-07T07:00:00Z,29.4012,-89.0355,10.0,2.846,244.0,,'11111222,11111222,99999999' 
WAVCIS,ioos:station:WAVCIS:CSI16:1,2012-05-07T08:00:00Z,29.4012,-89.0355,10.0,2.462,257.0,,'11111222,11111222,99999999' 
WAVCIS,ioos:station:WAVCIS:CSI16:1,2012-05-07T09:00:00Z,29.4012,-89.0355,10.0,2.119,318.0,,'11111222,11111222,99999999' 
WAVCIS,ioos:station:WAVCIS:CSI16:1,2012-05-07T10:00:00Z,29.4012,-89.0355,10.0,1.505,2.0,,'11111222,11111222,99999999' 
WAVCIS,ioos:station:WAVCIS:CSI16:1,2012-05-07T11:00:00Z,29.4012,-89.0355,10.0,1.871,343.0,,'11111222,11111222,99999999' 
WAVCIS,ioos:station:WAVCIS:CSI16:1,2012-05-07T12:00:00Z,29.4012,-89.0355,10.0,1.414,80.0,,'11111222,11111222,99999999' 
WAVCIS,ioos:station:WAVCIS:CSI16:1,2012-05-07T13:00:00Z,29.4012,-89.0355,10.0,2.873,103.0,,'11111222,11111222,99999999' 
WAVCIS,ioos:station:WAVCIS:CSI16:1,2012-05-07T14:00:00Z,29.4012,-89.0355,10.0,3.121,89.0,,'11111222,11111222,99999999' 
WAVCIS,ioos:station:WAVCIS:CSI16:1,2012-05-07T15:00:00Z,29.4012,-89.0355,10.0,4.042,104.0,,'11111222,11111222,99999999' 
WAVCIS,ioos:station:WAVCIS:CSI16:1,2012-05-07T16:00:00Z,29.4012,-89.0355,10.0,3.597,104.0,,'11111222,11111222,99999999' 
WAVCIS,ioos:station:WAVCIS:CSI16:1,2012-05-07T17:00:00Z,29.4012,-89.0355,10.0,3.495,106.0,,'11111222,11111222,99999999' 
WAVCIS,ioos:station:WAVCIS:CSI16:1,2012-05-07T18:00:00Z,29.4012,-89.0355,10.0,3.459,84.0,,'11111222,11111222,99999999' 
WAVCIS,ioos:station:WAVCIS:CSI16:1,2012-05-07T19:00:00Z,29.4012,-89.0355,10.0,3.78,88.0,,'11111222,11111222,99999999' 
WAVCIS,ioos:station:WAVCIS:CSI16:1,2012-05-07T20:00:00Z,29.4012,-89.0355,10.0,4.726,99.0,,'11111222,11111222,99999999' 
WAVCIS,ioos:station:WAVCIS:CSI16:1,2012-05-07T21:00:00Z,29.4012,-89.0355,10.0,5.066,120.0,,'11111222,11111222,99999999' 
WAVCIS,ioos:station:WAVCIS:CSI16:1,2012-05-07T22:00:00Z,29.4012,-89.0355,10.0,5.568,117.0,,'11111222,11111222,99999999' 
WAVCIS,ioos:station:WAVCIS:CSI16:1,2012-05-07T23:00:00Z,29.4012,-89.0355,10.0,4.627,132.0,,'11111222,11111222,99999999' 
WAVCIS,ioos:station:WAVCIS:CSI16:1,2012-05-08T00:00:00Z,29.4012,-89.0355,10.0,5.209,131.0,,'11111222,11111222,99999999' 
WAVCIS,ioos:station:WAVCIS:CSI16:1,2012-05-08T01:00:00Z,29.4012,-89.0355,10.0,4.781,128.0,,'11111222,11111222,99999999' 
WAVCIS,ioos:station:WAVCIS:CSI16:1,2012-05-08T02:00:00Z,29.4012,-89.0355,10.0,3.397,130.0,,'11111222,11111222,99999999' 
WAVCIS,ioos:station:WAVCIS:CSI16:1,2012-05-08T03:00:00Z,29.4012,-89.0355,10.0,3.493,112.0,,'11111222,11111222,99999999' 
WAVCIS,ioos:station:WAVCIS:CSI16:1,2012-05-08T04:00:00Z,29.4012,-89.0355,10.0,2.769,107.0,,'11111222,11111222,99999999' 
WAVCIS,ioos:station:WAVCIS:CSI16:1,2012-05-08T05:00:00Z,29.4012,-89.0355,10.0,2.363,104.0,,'11111222,11111222,99999999' 
WAVCIS,ioos:station:WAVCIS:CSI16:1,2012-05-08T06:00:00Z,29.4012,-89.0355,10.0,3.771,160.0,,'11111222,11111222,99999999' 
WAVCIS,ioos:station:WAVCIS:CSI16:1,2012-05-08T07:00:00Z,29.4012,-89.0355,10.0,4.54,153.0,,'11111222,11111222,99999999' 
WAVCIS,ioos:station:WAVCIS:CSI16:1,2012-05-08T08:00:00Z,29.4012,-89.0355,10.0,6.298,165.0,,'11111222,11111222,99999999' 
WAVCIS,ioos:station:WAVCIS:CSI16:1,2012-05-08T09:00:00Z,29.4012,-89.0355,10.0,3.727,169.0,,'11111222,11111222,99999999' 
WAVCIS,ioos:station:WAVCIS:CSI16:1,2012-05-08T10:00:00Z,29.4012,-89.0355,10.0,1.4,246.0,,'11111222,11111222,99999999' 
WAVCIS,ioos:station:WAVCIS:CSI16:1,2012-05-08T11:00:00Z,29.4012,-89.0355,10.0,1.608,313.0,,'11111222,11111222,99999999' 
WAVCIS,ioos:station:WAVCIS:CSI16:1,2012-05-08T12:00:00Z,29.4012,-89.0355,10.0,1.893,335.0,,'11111222,11111222,99999999' 
WAVCIS,ioos:station:WAVCIS:CSI16:1,2012-05-08T13:00:00Z,29.4012,-89.0355,10.0,2.516,97.0,,'11111222,11111222,99999999' 
WAVCIS,ioos:station:WAVCIS:CSI16:1,2012-05-08T14:00:00Z,29.4012,-89.0355,10.0,3.349,88.0,,'11111222,11111222,99999999' 
WAVCIS,ioos:station:WAVCIS:CSI16:1,2012-05-08T15:00:00Z,29.4012,-89.0355,10.0,3.945,91.0,,'11111222,11111222,99999999' 
WAVCIS,ioos:station:WAVCIS:CSI16:1,2012-05-08T16:00:00Z,29.4012,-89.0355,10.0,4.047,84.0,,'11111222,11111222,99999999' 
WAVCIS,ioos:station:WAVCIS:CSI16:1,2012-05-08T17:00:00Z,29.4012,-89.0355,10.0,4.524,86.0,,'11111222,11111222,99999999' 
WAVCIS,ioos:station:WAVCIS:CSI16:1,2012-05-08T18:00:00Z,29.4012,-89.0355,10.0,6.185,97.0,,'11111222,11111222,99999999' 
WAVCIS,ioos:station:WAVCIS:CSI16:1,2012-05-08T19:00:00Z,29.4012,-89.0355,10.0,5.423,108.0,,'11111222,11111222,99999999' 
WAVCIS,ioos:station:WAVCIS:CSI16:1,2012-05-08T20:00:00Z,29.4012,-89.0355,10.0,5.136,117.0,,'11111222,11111222,99999999' 
WAVCIS,ioos:station:WAVCIS:CSI16:1,2012-05-08T21:00:00Z,29.4012,-89.0355,10.0,4.81,141.0,,'11111222,11111222,99999999' 
WAVCIS,ioos:station:WAVCIS:CSI16:1,2012-05-08T22:00:00Z,29.4012,-89.0355,10.0,3.962,139.0,,'11111222,11111222,99999999' 
WAVCIS,ioos:station:WAVCIS:CSI16:1,2012-05-08T23:00:00Z,29.4012,-89.0355,10.0,4.344,135.0,,'11111222,11111222,99999999' 
WAVCIS,ioos:station:WAVCIS:CSI16:1,2012-05-09T00:00:00Z,29.4012,-89.0355,10.0,4.369,140.0,,'11111222,11111222,99999999' 
WAVCIS,ioos:station:WAVCIS:CSI16:1,2012-05-09T01:00:00Z,29.4012,-89.0355,10.0,4.373,142.0,,'11111222,11111222,99999999' 
WAVCIS,ioos:station:WAVCIS:CSI16:1,2012-05-09T02:00:00Z,29.4012,-89.0355,10.0,3.877,171.0,,'11111222,11111222,99999999' 
WAVCIS,ioos:station:WAVCIS:CSI16:1,2012-05-09T03:00:00Z,29.4012,-89.0355,10.0,4.492,210.0,,'11111222,11111222,99999999' 
WAVCIS,ioos:station:WAVCIS:CSI16:1,2012-05-09T04:00:00Z,29.4012,-89.0355,10.0,4.769,234.0,,'11111222,11111222,99999999' 
WAVCIS,ioos:station:WAVCIS:CSI16:1,2012-05-09T05:00:00Z,29.4012,-89.0355,10.0,3.013,211.0,,'11111222,11111222,99999999' 
WAVCIS,ioos:station:WAVCIS:CSI16:1,2012-05-09T06:00:00Z,29.4012,-89.0355,10.0,2.867,217.0,,'11111222,11111222,99999999' 